千帆星座-106(QIANFAN-106)

导读

QIANFAN-106(千帆-106)是中国于2025年10月17日发射的人造卫星,属于中国千帆极轨卫星组网的组成部分,该系列卫星主要服务于商业遥感、通信互联等领域。作为中国商业航天布局的重要节点,它将与同系列卫星组网协同,为全球用户提供更稳定的对地观测、应急响应等服务,推动中国卫星应用产业发展,助力在商业航天领域提升服务能力,目前已在轨稳定运行近五个月。

Basic Information
目录编号:
66048
目录名称:
QIANFAN-106
国际标识:
2025-233R
轨道中心:
EARTH
卫星名称:
千帆星座-106
卫星全名:
千帆星座-106(QIANFAN-106)
卫星状态:
在轨 (已飞行239 天)
发射日期:
2025-10-17 UTC
国别 :
中国 (CN)
星等 :
--
Orbit Information
数据来源 国际轨道数据 AOE轨道数据
星历时间 2026-06-13T01:55:50+0800
9小时前
查看轨道信息
2026-06-07T08:00:00+0800
6天前
查看轨道信息
半长轴 7446.678km 7446.682km
偏心率 0.0002128 0.0001721
轨道倾角 89.000° 88.998°
近地点辐角 87.074° 97.820°
升交点赤经 43.605° 44.187°
平近点角 273.065° 47.117°
近地点 1066.956km 1067.263km
远地点 1070.126km 1069.827km
周期 106.587分钟 106.587分钟
每日圈数 13.510111 13.510102
Detailed Information
卫星平台:
106
覆盖范围:
全球
运营商:
上海垣信卫星科技有限公司
运营商所在国:
中国
使用方式:
暂无
Satellite Introduction
千帆星座,也被称为“G60星链”计划,是中国版“星链”的重要组成部分,旨在打造一个由1.4万多颗低轨宽频多媒体卫星构成的庞大星座。千帆星座计划由上海垣信卫星科技有限公司负责实施,于2023年启动建设。该项目是我国第二个低轨卫星大星座,旨在通过构建庞大的卫星网络,为全球用户提供高质量的通信和宽带互联网服务。
2D Orbit Map
3D Orbit Map
Orbit Altitude Analysis Chart
Orbit Inclination Analysis Chart
Orbit Comprehensive Analysis Chart
View Comprehensive Chart